Regional Weather Roundup
Issued by NWS

Home | Current Version | Previous Version | Graphics & Text | Print | Product List | Glossary On
Versions: 1 2 3 4 5 6 7 8 9 10 11 12 13 14 15 16 17 18 19 20 21 22 23 24 25 26 27 28 29 30 31 32 33 34 35 36 37 38 39 40 41 42 43 44 45 46 47 48 49 50
000
ASUS45 KSLC 311310
RWRUT
UTAH REGIONAL WEATHER ROUNDUP
NATIONAL WEATHER SERVICE SALT LAKE CITY UT
700 AM MDT FRI JUL 31 2015

UTZ001>011-023>025-311400-

NORTHERN UTAH

CITY           SKY/WX    TMP DP  RH WIND       PRES   REMARKS
BRIGHAM CITY   PTCLDY    56  38  51 CALM      30.23S
HILL AFB       CLEAR     61  31  31 E23G31    30.26R
LOGAN          CLEAR     49  39  68 CALM      30.28R
OGDEN          PTCLDY    61  32  33 S9        30.23R
PROVO AIRPORT  PTCLDY    54  34  47 CALM      30.27R
SALT LAKE CITY PTCLDY    64  33  31 CALM      30.23R
VERNAL         CLEAR     56  34  43 W5        30.30R
WENDOVER       PTCLDY    66  34  30 CALM      30.23S
HEBER CITY     CLEAR     41  34  75 CALM      30.38R
WEST JORDAN    CLEAR     61  34  36 CALM      30.25R

$$

UTZ012>022-026-027-311400-

SOUTHERN/CENTRAL UTAH

CITY           SKY/WX    TMP DP  RH WIND       PRES   REMARKS
BLANDING       PTCLDY    61  53  73 N6        30.43S
BRYCE CANYON   PTCLDY    50  42  74 SW3       30.47R
CEDAR CITY     MOCLDY    69  37  30 S5        30.29R
DELTA          PTCLDY    59  28  31 E3        30.25R
HANKSVILLE     CLEAR     64  32  29 CALM      30.24R
MILFORD        MOCLDY    59  30  33 S5        30.26R
MOAB/CYNLANDS  CLEAR     71  50  47 VRB3      30.23R
PRICE          CLEAR     59  19  21 CALM      30.32R
ST GEORGE      SUNNY     81  48  32 NE5       30.12R
KANAB          MOCLDY    66  48  52 NE3       30.33R

$$

REGIONAL REPORTS     COLORADO/ARIZONA

CITY           SKY/WX    TMP DP  RH WIND       PRES   REMARKS
CRAIG, CO      CLEAR     44  34  67 CALM      30.39R
GRAND JUNCTION CLEAR     59  29  31 CALM      30.27R
RIFLE          CLEAR     56  33  42 CALM      30.35R
MONTROSE       PTCLDY    59  41  51 S8        30.37R
CORTEZ         PTCLDY    61  58  90 SW5       30.38R
PAGE, AZ       PTCLDY    75  55  49 SE7       30.23R
GRAND CANYON   CLOUDY    60  50  69 CALM      30.40R
KINGMAN        PTCLDY    73  55  53 S9        30.12R
FLAGSTAFF      PTCLDY    50  49  96 CALM      30.42R

$$

REGIONAL REPORTS    NEVADA/IDAHO/WYOMING

CITY           SKY/WX    TMP DP  RH WIND       PRES   REMARKS
LAS VEGAS, NV  MOCLDY    89  53  29 W5        29.98R
ELY            PTCLDY    50  22  33 S8        30.38R
ELKO           MOCLDY    56  29  35 NE3       30.30R
POCATELLO, ID  CLEAR     46  38  73 CALM      30.29R
BURLEY         PTCLDY    49  43  80 CALM      30.24R
EVANSTON, WY   PTCLDY    53  25  33 SE5       30.44R
ROCK SPRINGS   MOCLDY    51  22  31 S5        30.42R
KEMMERER       PTCLDY    50  30  46 N7        30.46R

$$



USA.gov is the U.S. government's official web portal to all federal, state and local government web resources and services.